Regional Weather Roundup
Issued by NWS

Home | Current Version | Previous Version | Text Only | Print | Product List | Glossary On
Versions: 1 2 3 4 5 6 7 8 9 10 11 12 13 14 15 16 17 18 19 20 21 22 23 24 25 26 27 28 29 30 31 32 33 34 35 36 37 38 39 40 41 42 43 44 45 46 47 48 49 50
000
ASUS45 KREV 250410
RWRNV
NEVADA REGIONAL WEATHER ROUNDUP
NATIONAL WEATHER SERVICE RENO NV
900 PM PDT FRI APR 24 2015

NOTE: "FAIR" INDICATES FEW OR NO CLOUDS BELOW 12,000 FEET WITH NO
SIGNIFICANT WEATHER AND/OR OBSTRUCTIONS TO VISIBILITY.

NVZ001-003-004-250500-
WESTERN NEVADA

CITY           SKY/WX    TMP DP  RH WIND       PRES   REMARKS
RENO           CLOUDY    50  27  40 W7        29.87F
CARSON CITY    CLOUDY    48  28  46 S8        29.90S
MINDEN         CLOUDY    48  28  46 SW9G20    29.92
PYRAMID LAKE     N/A     52 N/A N/A SW16        N/A
FALLON         CLOUDY    53  31  42 W13       29.85R
LOVELOCK       CLOUDY    51  33  50 W14       29.83R
HAWTHORNE      MOCLDY    59  23  25 SW12      29.86R
$$

NVZ002-CAZ072-073-250500-
NORTHERN AND CENTRAL SIERRA

CITY           SKY/WX    TMP DP  RH WIND       PRES   REMARKS
S. LAKE TAHOE  CLOUDY    41  27  57 S13       29.95R
TRUCKEE        MOCLDY    36  27  69 SW18G24   29.92F
SQUAW VLY 8000   N/A     28  28 100 SW13        N/A
SUSANVILLE     CLOUDY    46  34  61 NW12      29.85S
BLUE CANYON    LGT RAIN  37  33  85 S17G26    29.96S
MAMMOTH LAKES  MOCLDY    39  27  60 W7        29.99R
BRIDGEPORT     CLOUDY    41  27  57 W6        29.93R
$$

NVZ030-031-036-250500-
NORTHERN NEVADA

CITY           SKY/WX    TMP DP  RH WIND       PRES   REMARKS
ELKO           CLOUDY    42  36  79 W5        29.84R
WINNEMUCCA     CLOUDY    45  34  65 S6        29.84R
WENDOVER       MOCLDY    48  30  49 NW12G17   29.80R
$$

NVZ035-037-250500-
CENTRAL NEVADA

CITY           SKY/WX    TMP DP  RH WIND       PRES   REMARKS
ELY            PTCLDY    37  35  92 W5        29.84R
EUREKA           N/A     44  28  53 CALM      29.85R
$$

NVZ013-014-250500-
SOUTH CENTRAL NEVADA

CITY           SKY/WX    TMP DP  RH WIND       PRES   REMARKS
TONOPAH        CLOUDY    53  26  35 N15       29.86R
$$

NVZ017-020-022-250500-
SOUTHERN NEVADA

CITY           SKY/WX    TMP DP  RH WIND       PRES   REMARKS
LAS VEGAS      CLOUDY    68  38  33 S22G29    29.71R
N. LAS VEGAS   CLOUDY    69  36  29 SW13      29.73R
NELLIS AFB     CLOUDY    71  39  31 S16       29.73R
HENDERSON      CLOUDY    65  39  38 S20       29.79R
MERCURY        PTCLDY    64  34  32 SW9       29.75R
$$


USA.gov is the U.S. government's official web portal to all federal, state and local government web resources and services.